DECAYED

STARLINK-2691, 48647 (Decayed)

Orbit data source: Space-Track

STARLINK-2691, 48647 was a payload satellite owned by SpaceX/Seattle (US) in LEO that was launched on Wed, 26 May 2021 UTC via an FALCON 9 launch vehicle from the Air Force Eastern Test Range (AFETR). Payload-class satellites include a variety of spacecraft equipped with specific instruments for various scientific and technological missions. These include communications satellites like Starlink; space stations such as the ISS; scientific satellites like the Hubble; Earth observation satellites from companies like Planet Labs, Umbra, and HawkEye 360; GPS; miniature CubeSats for education and research; and military/defense satellites.

Not visible in the next 10 days
Identifier
48647, 2021-044K
Orbit
Decayed
Country
Flag of USUS
Related business
Manufacturer
SpaceX/Seattle
Mission
Decayed Commercial Communications
Bus & Motor
STARLINK, Unknown motor
Mass
260 kg wet, ~248 kg dry
Launch date (UTC)
2021-05-26 (5 years ago)
Launch vehicle
FALCON 9
Launch site
Air Force Eastern Test Range (AFETR)
Object type
Payload
Rocket body
Debris
Shape & HBR
Box + 1 Pan, 10.1 m
Radar Cross Section
13.562 m², Large (>1 m²)

Expand to show TLE details & history
Last TLE update: 1 year ago

TLE from 1 year ago
0 STARLINK-2691
1 48647U 21044K   25028.31199946  .15554894  12505-4  63150-3 0  9995
2 48647  53.0365 122.4872 0005513 298.8728 167.7254 16.43543036203773
Epoch: 2025-01-28T07:29Z
TLE epoch observation values (Epoch: 2025-01-28T07:29:16.753Z)
Latitude
50.12262°
Longitude
-1.23569°
Altitude
165.701 km
Speed
7.811 km/s
True Right ascension
15h 55m 36s
True Declination
49° 56' 17"
Sunlit
Object was in daylight at epoch
Visualization orbit readout
Latitude
Unknown
Longitude
Unknown
Altitude
Unknown
Speed
Unknown
Apparent Right ascension
Unknown
Apparent Declination
Unknown
Sunlit
N/A
Visualization observer readout
Local Sidereal Time
21:28:47
Azimuth
Unknown
Elevation
Unknown
Doppler factor
Unknown
Orbital elements
Apogee altitude
160.287 km
Perigee altitude
153.081 km
Semi-major axis
6,534.821 km
Eccentricity
0.00055
Inclination
53.0365°
RAAN
122.4872°
Arg. of periapsis
298.8728°
True anomaly
167.73882°
Mean anomaly
167.7254°
Eccentric anomaly
167.73211°
Mean motion
4.10859 °/min
Orbital period
87.62 mins
BSTAR
0.0006315
Loading maneuver chart data...
Computing Atmospheric mass density...
Loading historical data...
Loading historical data...
Loading historical data...
Loading historical data...
Loading historical data...
Loading historical data...
Loading historical data...

Documentation

Showing up to 5 results
|